612  
ASUS41 KRLX 160610  
RWRRLX  
REGIONAL WEATHER ROUNDUP  
NATIONAL WEATHER SERVICE CHARLESTON WV  
200 AM EDT TUE OCT 16 2018  
 
NOTE: "FAIR" INDICATES FEW OR NO CLOUDS BELOW 12,000 FEET WITH NO  
SIGNIFICANT WEATHER AND/OR S TO VISIBILITY
.  
 
WVZ003-160700-  
NORTHERN PANHANDLE OF WEST VIRGINIA  
 
CITY SKY/WX TMP DP RH WIND PRES REMARKS
 
WHEELING FAIR 43 37 79 W7 30.22S  

 
 
WVZ009-160700-  
NORTHWEST WEST VIRGINIA  
 
CITY SKY/WX TMP DP RH WIND PRES REMARKS
 
PARKERSBURG FAIR 46 40 79 NW6 30.29R  

 
 
WVZ006-160700-  
WESTERN WEST VIRGINIA  
 
CITY SKY/WX TMP DP RH WIND PRES REMARKS
 
HUNTINGTON CLOUDY 48 43 82 NE8 30.25F  

 
 
WVZ015-160700-  
WEST CENTRAL WEST VIRGINIA  
 
CITY SKY/WX TMP DP RH WIND PRES REMARKS
 
CHARLESTON CLOUDY 50 47 89 N6 30.25R  

 
 
WVZ022-031-160700-  
NORTH CENTRAL WEST VIRGINIA  
 
CITY SKY/WX TMP DP RH WIND PRES REMARKS
 
MORGANTOWN FAIR 47 43 86 VRB5 30.21S  
CLARKSBURG FAIR 50 43 77 NW7 30.21S  
BUCKHANNON CLOUDY 50 50 100 CALM 30.21S  

 
 
WVZ025-035-042-045-160700-  
SOUTHERN WEST VIRGINIA  
 
CITY SKY/WX TMP DP RH WIND PRES REMARKS
 
BECKLEY CLOUDY 50 47 89 N7 30.21F  
LOGAN CLOUDY 50 48 93 CALM 30.23S  
PINEVILLE CLOUDY 53 50 90 MISG 30.27R  
BLUEFIELD LGT RAIN 51 51 100 W7 30.21F  
LEWISBURG CLOUDY 53 49 89 W5 30.19S  

 
 
WVZ047-160700-  
NORTHERN MOUNTAINS OF WEST VIRGINIA  
 
CITY SKY/WX TMP DP RH WIND PRES REMARKS
 
ELKINS CLOUDY 48 44 86 CALM 30.20S  

 
 
WVZ052-160700-  
EASTERN PANHANDLE OF WEST VIRGINIA  
 
CITY SKY/WX TMP DP RH WIND PRES REMARKS
 
MARTINSBURG FAIR 57 43 59 NW14G21 30.13R  
PETERSBURG FAIR 55 44 67 NE5 30.16R  

 
 
SOUTHEAST OHIO/NORTHEAST KENTUCKY  
 
CITY SKY/WX TMP DP RH WIND PRES REMARKS
 
ATHENS FAIR 43 42 96 CALM 30.27R  
ASHLAND NOT AVBL  

 
 
 
CLICK HERE TO GO TO PREVIOUS BULLETINS.

The Nexlab WV Page
The Nexlab OH Page
The Nexlab KY Page
The Nexlab VA Page Main Text Page